Location: Eyeline Observatory
(43.2182°N, 78.8632°W)
Time: 16:52:20
(UTC-04:00)

Vanguard 1 Rocket - Visible Passes

Search period start: 23 October 2017 00:00
Search period end: 02 November 2017 00:00
Orbit: 655 x 4222 km, 34.3° (Epoch: 22 October)

Date Brightness Start Highest point End Pass type
(mag) Time Alt. Az. Time Alt. Az. Time Alt. Az.
23 Oct 10.2 05:46:04 10° SSW 05:54:07 21° SSE 05:59:33 10° ESE visible
24 Oct 10.6 04:34:59 10° S 04:42:27 16° SSE 04:47:55 10° ESE visible
24 Oct 9.5 06:59:51 10° SW 07:08:39 31° S 07:14:04 10° ESE visible
25 Oct 11.0 03:26:25 10° SSE 03:30:23 11° SSE 03:33:50 10° SE visible
25 Oct 9.9 05:47:16 10° SW 05:57:21 27° SSE 06:03:36 10° ESE visible
26 Oct 10.4 04:36:59 13° SSW 04:45:39 23° SSE 04:52:35 10° ESE visible
26 Oct 9.2 07:02:03 10° SW 07:11:53 37° S 07:17:37 10° ESE visible
27 Oct 10.8 03:30:33 16° SSE 03:33:32 17° SSE 03:40:32 10° ESE visible
27 Oct 9.7 05:48:52 10° SW 06:00:34 34° SSE 06:07:19 10° ESE visible
28 Oct 11.2 02:24:01 11° SE 02:24:01 11° SE 02:25:35 10° SE visible
28 Oct 10.1 04:41:21 19° SSW 04:48:49 29° SSE 04:56:37 10° ESE visible
28 Oct 9.1 07:04:26 10° WSW 07:15:06 42° S 07:21:04 10° ESE visible
29 Oct 10.6 03:34:43 23° SSE 03:36:39 24° SSE 03:45:15 10° ESE visible
29 Oct 9.5 05:52:03 13° SW 06:03:45 40° S 06:10:52 10° ESE visible
30 Oct 11.0 02:28:00 16° SE 02:28:00 16° SE 02:32:32 10° ESE visible
30 Oct 9.9 04:45:19 26° SSW 04:51:57 36° SSE 05:00:22 10° E visible
30 Oct 9.0 07:06:57 10° WSW 07:18:15 46° S 07:24:27 10° ESE visible
31 Oct 10.4 03:38:31 30° SSE 03:39:42 30° SSE 03:49:20 10° E visible
31 Oct 9.3 05:55:50 16° SW 06:06:53 46° S 06:14:20 10° ESE visible
01 Nov 10.8 02:31:39 21° SE 02:31:39 21° SE 02:37:24 10° ESE visible
01 Nov 9.7 04:48:57 31° SSW 04:55:02 43° SSE 05:03:55 10° E visible
01 Nov 9.0 07:09:33 10° WSW 07:21:24 48° S 07:27:47 10° ESE visible
